GFSMW_250_spd_132.txt.gz
Wind_Speed
19 18 17 16 17 20 25 31 36 39 38 37 38 38 37 33 36 30 29 35 42 30 29 36 43 33 30 16 16 30 46 46 48 48 46 42 45 42 42 40 33 37 40
13 17 23 25 22 20 26 33 36 39 41 40 38 36 35 36 36 39 42 42 41 37 29 30 20 33 28 18 20 29 33 26 15 7 8 6 17 34 36 37 32 31 35
8 20 26 26 27 25 25 29 37 40 42 42 41 42 43 45 47 45 42 40 39 39 26 31 34 37 5 16 16 15 12 33 31 31 18 8 18 4 17 17 25 22 27
22 21 23 24 26 27 25 29 31 37 41 43 42 43 44 40 38 38 35 35 33 35 33 38 33 29 14 17 19 20 17 20 14 13 14 11 10 15 17 31 26 25 24
21 20 20 23 23 23 26 26 28 31 33 39 40 39 40 25 32 31 30 32 31 32 34 39 37 39 34 26 23 23 26 33 26 26 18 27 24 21 26 24 25 23 21
22 19 21 22 22 22 21 22 26 27 29 28 31 30 18 27 27 24 26 25 25 27 28 30 31 30 29 26 28 30 32 36 41 37 33 31 31 32 30 26 23 21 22
20 22 23 20 20 19 18 19 21 25 25 27 26 26 30 28 27 25 23 22 23 25 27 29 27 25 27 28 29 31 33 33 35 36 36 36 34 32 31 32 30 26 23
23 23 23 22 22 20 17 16 17 18 22 26 26 27 29 31 28 27 28 28 30 31 29 26 26 29 29 30 30 30 30 32 30 30 31 30 29 29 27 26 26 24 22
30 26 25 25 22 19 17 13 11 14 14 18 25 27 29 29 28 27 28 30 32 23 20 28 31 31 30 29 26 25 24 25 24 24 25 24 23 22 22 22 24 24 29
33 33 30 26 24 19 17 15 11 5 11 15 17 20 21 24 25 25 27 28 28 21 26 28 30 29 25 24 24 21 20 17 17 17 17 16 17 18 17 18 17 18 21
36 39 37 31 25 24 20 18 17 11 9 13 16 16 20 22 22 22 25 23 17 31 26 25 26 23 20 19 19 16 15 11 10 9 9 9 9 10 12 10 9 10 13
41 39 40 37 31 29 28 24 19 17 16 16 17 17 17 19 21 22 21 21 21 23 22 22 21 22 20 17 15 10 10 9 7 5 4 3 6 6 5 5 3 3 2
43 40 43 41 42 38 36 32 27 25 24 23 23 19 19 21 21 21 20 19 18 20 20 20 20 19 18 15 13 12 8 9 9 8 6 6 9 8 10 12 16 14 13
36 34 35 50 47 45 43 41 36 32 31 32 31 28 26 25 26 25 29 23 21 20 21 21 19 20 19 18 15 14 15 14 14 13 12 8 11 7 8 11 15 14 12
50 51 51 50 48 52 47 44 40 34 40 39 37 34 34 32 31 29 26 31 27 27 26 24 25 25 23 23 21 20 21 22 20 18 16 14 14 13 11 17 19 19 16
52 54 53 49 47 61 52 49 45 43 42 40 40 39 37 36 33 28 23 23 23 27 29 29 26 26 25 25 25 26 26 26 26 25 20 19 20 22 26 26 27 27 25
68 66 57 59 47 45 55 50 49 47 47 45 42 41 39 38 35 31 26 24 24 26 26 25 27 30 32 32 28 26 26 29 28 28 33 27 24 25 27 30 33 35 36
80 81 79 75 68 62 52 54 48 50 51 52 50 45 44 41 39 35 32 30 30 28 29 29 29 29 30 30 28 29 28 28 31 34 35 34 33 33 33 35 39 38 37
85 84 84 83 79 78 68 64 61 48 57 57 56 53 51 46 44 44 43 40 38 37 37 37 35 34 34 35 35 35 33 32 33 36 38 40 43 43 44 47 45 45 46
89 89 90 86 87 85 76 72 70 67 57 62 61 56 54 52 51 51 50 47 46 45 44 44 43 43 43 42 42 43 43 41 45 46 46 43 45 48 54 51 53 52 51
101 94 94 94 90 88 85 81 77 76 70 63 63 62 62 58 59 58 55 53 51 51 52 53 52 51 48 49 51 52 53 52 51 52 53 49 49 52 51 50 55 57 59
106 104 95 97 95 93 89 87 85 84 80 74 69 69 69 69 65 64 62 61 60 60 58 58 59 58 58 59 60 60 61 61 61 58 57 58 61 63 59 55 58 62 67
114 110 107 99 96 97 97 93 88 89 85 84 81 77 76 75 73 72 70 69 68 66 66 67 67 68 68 68 68 67 67 68 69 69 69 68 70 71 71 69 73 75 73
116 114 113 113 109 104 103 100 97 93 93 91 88 85 84 84 83 81 78 75 76 74 73 73 73 72 72 74 75 77 77 76 76 77 78 78 77 76 76 77 80 80 83
120 121 120 117 114 113 110 107 104 103 99 95 95 94 91 89 89 87 85 84 83 82 81 79 79 80 81 81 82 83 84 85 84 84 85 84 84 87 89 89 90 92 91
116 123 125 116 118 116 112 111 110 110 106 103 100 99 99 96 95 95 94 93 90 89 88 88 88 90 89 89 89 91 91 91 91 91 91 93 93 94 95 99 98 96 98

GFSMW_250_spd_135.txt.gz
Wind_Speed
11 12 14 21 22 27 30 30 29 31 33 33 35 36 34 30 33 35 38 37 33 28 26 22 15 27 17 35 43 34 42 30 21 25 32 41 36 39 41 48 46 44 43
21 21 19 24 26 30 32 31 34 36 34 36 36 31 31 30 38 26 37 33 29 36 26 22 22 24 27 38 37 25 18 18 30 23 24 26 29 31 26 23 34 36 34
16 23 24 25 27 30 32 33 33 37 34 36 35 34 32 31 30 26 34 36 22 16 6 15 22 19 23 27 19 9 6 6 10 18 21 22 15 14 14 23 22 23 23
15 24 26 28 24 30 34 34 36 38 40 39 39 41 39 37 32 34 30 30 25 23 24 29 20 21 15 13 10 11 11 6 2 14 19 20 23 21 22 18 17 15 15
15 21 23 26 26 26 31 34 38 40 39 38 34 33 32 30 31 29 26 21 25 35 34 23 19 21 21 23 19 17 12 17 22 22 24 21 19 21 17 18 17 16 16
17 19 22 23 24 25 26 30 33 35 34 33 25 22 26 25 28 29 29 25 28 35 33 31 27 21 20 21 26 32 32 25 25 24 24 21 17 12 16 18 23 26 26
19 22 19 21 23 26 27 29 26 27 29 17 17 21 18 19 21 19 20 26 27 25 26 26 24 24 25 30 31 33 34 35 35 32 30 27 25 23 26 25 20 21 21
17 23 20 20 20 21 24 27 27 23 17 17 22 22 21 18 16 16 20 23 25 23 23 25 24 24 26 31 32 33 34 33 32 31 28 26 25 25 24 25 21 17 18
21 24 24 21 19 21 22 24 24 23 22 20 21 22 21 20 20 23 26 25 22 23 22 23 24 28 28 30 28 25 23 24 24 23 22 23 22 22 23 23 21 22 22
28 25 28 25 20 19 17 19 20 19 20 21 21 21 22 24 24 29 29 24 23 23 28 25 24 24 23 23 23 21 19 17 18 17 15 13 14 14 15 17 18 17 16
38 34 29 28 25 20 18 15 15 17 16 16 18 20 21 22 24 28 27 23 22 16 25 24 21 20 19 17 16 16 13 13 12 11 10 9 7 7 8 8 9 9 10
43 42 37 33 29 26 21 17 15 15 17 17 16 19 19 21 28 23 23 21 13 15 26 24 20 15 15 14 11 11 8 8 9 9 7 7 7 6 7 5 3 7 5
44 43 44 39 35 30 26 24 23 20 16 20 23 22 22 21 20 19 23 16 16 22 23 23 23 20 17 14 15 12 9 11 8 8 8 8 10 11 11 12 12 15 14
52 48 48 44 42 38 30 29 28 27 24 23 25 27 27 26 24 21 21 19 24 20 21 23 26 25 22 21 21 21 18 15 16 14 14 16 16 15 13 15 17 16 15
61 56 53 44 45 43 39 36 35 29 31 29 30 30 29 28 27 26 25 24 23 24 23 23 23 22 24 25 24 23 22 21 21 22 22 20 19 20 16 16 16 21 22
67 64 54 51 42 43 46 44 40 38 37 21 26 34 39 36 32 32 32 29 30 31 28 29 29 30 31 31 30 30 28 26 27 27 28 28 26 25 23 24 26 28 27
64 68 56 46 46 43 33 56 42 44 45 33 44 40 41 42 42 42 39 38 36 35 37 35 33 34 32 33 32 32 30 27 26 29 31 31 32 34 32 33 29 29 31
74 65 61 57 50 50 54 59 46 47 44 49 41 44 48 46 46 46 43 41 39 36 33 34 34 34 35 37 38 37 36 36 35 33 31 32 35 37 38 39 39 40 38
79 77 71 66 65 61 59 57 55 53 54 55 59 57 53 47 47 47 47 45 41 40 37 37 35 37 38 37 37 37 39 37 38 36 37 36 38 41 42 44 44 47 47
80 77 79 75 71 64 73 64 50 58 62 57 55 59 58 55 54 53 51 50 49 47 45 42 42 41 41 41 40 40 40 42 43 44 43 42 44 47 49 50 52 54 57
86 85 82 84 79 73 73 78 62 59 62 58 48 51 59 58 58 58 56 57 54 52 52 49 50 50 50 49 48 48 50 50 52 52 51 52 54 55 56 58 57 57 58
98 100 98 92 89 85 83 80 82 75 75 71 65 57 54 57 60 62 58 61 62 62 59 56 58 58 55 56 56 57 57 57 58 59 60 60 62 62 63 65 66 67 67
107 98 102 98 97 95 95 94 91 90 87 85 80 77 74 69 63 61 64 66 65 68 68 67 65 63 63 63 63 64 64 64 64 64 66 68 70 70 71 73 75 76 77
111 114 104 104 102 102 103 100 99 97 95 93 92 89 80 81 78 77 74 72 70 73 74 73 72 71 71 72 72 72 73 72 71 72 73 73 73 74 77 78 80 82 84
111 114 114 112 111 109 108 107 105 103 101 100 96 94 88 89 85 83 83 83 81 79 80 80 80 81 80 80 79 79 80 81 82 82 81 81 83 84 85 86 88 90 92
107 109 108 111 117 113 111 110 109 104 105 104 100 98 97 95 90 90 92 91 90 89 90 90 89 90 88 88 90 89 88 89 90 90 90 90 93 94 94 96 99 100 102

GFSMW_250_spd_138.txt.gz
Wind_Speed
9 9 13 18 20 21 21 17 17 17 26 30 24 29 32 33 37 26 19 22 26 23 34 39 47 49 50 32 35 38 28 23 22 27 31 31 28 30 35 46 42 31 27
12 12 18 20 22 23 22 24 28 28 29 28 29 33 33 34 34 26 24 12 19 16 21 24 34 31 23 24 25 23 27 26 20 22 21 25 23 30 31 30 32 32 36
14 12 16 19 22 22 29 32 37 39 37 33 31 29 31 33 28 26 16 12 21 16 18 19 24 23 26 17 6 15 24 25 18 19 19 18 21 23 25 29 29 26 26
16 16 14 19 23 22 29 33 36 39 37 38 40 36 31 32 28 24 15 13 15 18 15 16 19 16 13 4 6 3 11 8 14 22 18 19 20 20 19 22 28 37 37
20 22 14 17 20 24 30 33 36 38 36 34 34 29 24 24 23 19 18 14 26 24 17 16 15 10 8 10 7 7 14 15 21 15 14 22 22 18 18 21 28 26 25
16 20 18 18 20 24 35 39 42 40 38 36 33 31 27 24 19 14 15 27 21 14 19 20 19 15 12 14 10 16 14 17 17 17 23 20 19 19 20 24 22 26 29
17 18 20 20 20 24 30 33 36 33 29 27 27 26 26 24 19 14 23 32 22 17 19 17 18 20 24 23 20 19 21 20 18 16 19 19 22 23 19 19 19 18 23
22 20 22 24 23 25 25 25 27 19 26 28 22 19 24 23 17 18 19 24 22 20 20 22 24 27 30 32 31 29 28 27 27 26 27 27 26 24 22 19 17 18 21
27 27 23 23 24 25 22 22 22 18 19 24 23 20 18 17 18 20 22 21 20 20 18 19 24 26 28 29 26 25 25 24 24 22 22 22 22 21 19 21 18 18 21
29 29 28 24 22 25 23 22 19 18 22 22 20 21 18 18 21 24 24 23 22 20 20 20 22 24 26 25 23 19 17 18 18 17 17 16 16 16 14 16 15 17 17
33 32 32 30 28 26 23 19 18 17 17 18 18 16 17 21 26 26 26 25 23 22 21 23 23 23 20 18 16 15 12 11 9 8 7 8 9 9 8 6 6 7 9
32 34 36 33 31 26 24 20 18 16 16 17 18 18 18 19 26 25 22 22 23 21 20 21 21 19 17 16 15 10 8 8 6 5 3 1 3 3 4 4 5 8 11
44 44 42 38 34 33 27 24 22 19 18 17 17 18 21 21 23 25 22 21 18 17 21 22 20 20 16 13 12 11 9 8 6 6 6 6 5 7 8 7 8 7 10
51 46 46 43 39 37 33 28 24 23 21 20 19 19 18 19 22 25 18 22 20 17 20 26 24 20 16 14 15 16 15 12 12 12 14 13 13 14 12 13 13 17 16
59 51 50 47 46 41 35 32 29 28 27 24 24 25 25 24 22 22 19 16 15 16 19 25 22 24 23 21 20 22 19 20 20 20 20 20 21 19 19 19 19 21 21
65 60 53 54 55 47 41 31 37 32 30 30 25 23 30 30 31 30 29 26 25 22 24 25 25 25 26 26 28 27 28 29 29 26 26 29 28 27 26 26 29 31 28
72 67 65 56 59 53 50 45 37 31 30 31 32 30 34 40 36 35 33 33 32 34 32 32 33 29 32 33 32 34 35 35 36 35 33 31 29 28 28 29 30 32 35
77 71 72 70 65 63 61 56 47 42 36 54 53 40 37 35 34 38 44 42 39 37 38 36 36 40 45 42 39 36 35 36 38 38 36 36 37 36 33 32 33 36 38
81 76 76 72 66 61 59 57 55 52 26 43 60 58 51 54 51 49 45 39 36 40 45 45 42 43 42 43 42 42 41 43 44 44 45 42 39 39 37 37 40 40 41
73 76 72 78 74 68 66 61 59 53 58 32 31 37 39 46 38 39 39 38 42 44 46 46 43 46 45 44 43 43 43 44 43 41 42 42 42 42 44 46 47 48 49
87 77 73 73 73 73 74 70 67 66 58 55 44 51 49 50 54 62 55 51 53 51 51 47 48 51 50 50 50 48 46 47 47 48 49 49 50 51 53 53 55 57 59
87 81 79 75 68 69 73 73 72 73 67 63 61 41 65 69 67 69 71 62 63 61 58 55 54 55 57 56 56 56 55 55 56 57 58 59 58 59 60 62 62 63 65
80 84 83 82 82 80 73 77 74 75 71 70 77 82 77 73 69 72 72 69 64 63 61 65 61 59 61 64 64 64 64 63 63 63 64 65 66 66 68 70 72 73 73
97 87 89 88 87 87 85 82 83 82 82 78 83 84 88 87 80 72 68 64 66 68 69 71 67 65 64 66 71 72 74 74 73 73 73 74 74 77 78 80 81 83 84
113 105 93 94 92 89 90 90 89 89 90 90 90 92 90 86 84 82 75 68 65 67 67 69 71 70 70 72 74 75 79 80 80 81 82 83 84 86 87 88 90 93 94
120 120 117 108 103 99 99 96 94 95 94 94 96 96 93 88 88 85 84 84 84 82 82 82 83 86 88 88 87 85 83 84 86 88 89 90 92 94 96 99 101 102 104

GFSMW_250_spd_141.txt.gz
Wind_Speed
12 13 13 13 9 13 10 10 17 23 31 27 19 33 38 32 32 33 37 41 43 44 44 43 42 43 37 33 31 28 25 27 30 26 27 38 34 29 26 30 30 34 34
8 11 13 12 14 17 19 26 33 38 34 30 32 41 32 26 29 31 35 32 39 42 36 33 29 26 28 25 27 23 22 25 25 23 29 25 28 30 27 25 29 30 29
3 9 14 15 16 21 27 41 40 38 35 35 37 39 32 21 24 28 28 29 27 38 26 23 18 17 18 20 22 21 19 21 23 22 20 21 24 29 26 32 31 25 29
0 8 10 16 16 24 35 43 40 38 38 36 39 32 29 28 25 18 23 20 22 19 14 10 14 10 15 14 13 14 18 19 18 18 19 21 26 33 24 24 26 27 29
5 5 7 14 19 23 31 38 37 36 34 33 33 31 29 26 20 12 13 21 17 20 11 15 15 7 1 9 13 15 19 18 17 22 20 22 24 26 24 25 21 24 25
10 9 7 11 21 24 33 37 36 38 37 36 33 30 29 23 19 12 24 24 20 16 17 14 8 7 5 6 14 17 19 17 20 23 17 18 19 21 20 23 23 23 23
12 12 11 15 22 31 34 38 36 34 32 28 29 24 23 23 18 15 17 16 12 19 15 13 13 13 12 13 12 17 18 19 22 19 18 18 19 15 17 20 26 24 24
16 14 15 16 27 31 35 36 34 32 30 26 25 22 18 14 15 21 20 16 13 15 15 13 15 16 21 19 18 18 20 22 22 22 21 18 15 15 18 22 21 20 19
20 20 19 20 23 26 32 30 30 30 30 28 24 22 19 14 19 22 21 15 16 17 19 20 27 28 27 28 27 26 26 24 22 20 19 16 13 15 17 20 21 21 18
24 22 25 25 26 28 28 26 20 26 26 23 22 23 18 16 16 24 24 21 22 20 17 19 22 26 26 24 25 25 24 20 17 16 15 15 15 10 9 8 8 8 12
33 31 28 25 24 28 29 26 21 19 27 22 22 21 19 19 19 21 22 24 23 23 25 26 27 25 21 19 17 16 14 13 14 12 9 5 4 4 3 1 2 2 1
34 37 36 32 29 27 27 25 24 23 23 23 21 21 21 21 21 21 20 22 21 23 24 21 21 21 18 15 11 8 7 6 5 5 4 4 4 5 8 8 8 10 8
40 41 39 35 32 32 28 27 25 25 25 24 21 19 20 21 23 23 22 19 18 17 18 19 22 20 17 14 14 13 10 9 8 7 6 7 7 8 10 11 13 11 12
49 46 43 39 39 36 34 30 28 27 25 24 25 22 22 22 27 24 22 21 20 20 17 17 21 21 18 18 16 14 12 13 13 13 12 13 12 11 13 15 16 17 17
57 52 50 47 44 41 38 33 31 28 26 24 23 22 23 23 24 27 24 20 17 22 17 19 27 24 22 19 19 18 18 19 18 19 20 19 19 19 20 22 21 22 23
65 60 55 53 47 45 43 37 35 31 26 24 21 21 21 21 21 20 25 24 19 16 16 18 22 27 26 27 30 28 26 27 27 26 26 25 26 29 29 27 26 27 28
71 65 64 56 54 52 49 44 41 37 34 31 31 29 25 22 22 25 27 28 27 27 25 25 27 27 29 29 30 32 33 33 32 31 32 34 34 34 34 32 31 32 31
79 71 73 63 61 58 56 52 45 41 32 44 38 35 31 29 30 27 29 32 32 32 33 31 35 36 36 38 38 37 36 37 37 36 36 37 38 37 37 38 40 39 39
84 77 78 71 68 65 62 57 60 55 51 49 42 36 38 43 38 37 36 32 31 30 36 45 37 44 42 42 40 40 41 41 43 43 43 43 44 44 44 46 46 47 46
91 84 83 79 75 71 69 64 65 61 55 51 48 37 36 38 46 51 43 40 43 41 37 42 41 43 46 48 47 46 46 45 44 44 47 48 49 48 45 44 45 46 47
97 93 88 87 84 79 72 71 68 66 63 58 56 46 44 38 36 44 53 47 43 41 47 48 52 50 49 49 50 49 48 49 50 49 51 51 50 49 50 50 52 53 56
87 99 96 94 92 87 80 76 71 71 71 68 68 58 48 35 42 38 43 54 50 40 57 55 55 53 54 54 55 53 53 54 55 56 55 56 58 57 57 59 60 62 65
84 89 91 93 92 91 88 83 80 80 77 74 74 67 68 48 50 43 41 43 50 54 57 59 61 62 63 64 66 64 66 64 63 62 62 63 65 65 66 68 69 70 71
86 88 92 88 92 92 90 88 85 84 84 81 77 71 72 68 65 65 61 66 69 62 68 68 70 72 72 74 77 76 73 69 67 69 69 68 70 74 75 76 78 81 83
91 93 93 96 92 93 92 90 90 89 91 89 86 78 77 73 70 72 72 67 70 73 74 72 76 78 76 79 80 81 73 70 69 70 72 73 74 76 78 82 85 86 87
105 97 95 93 96 93 92 88 89 89 94 95 93 90 87 85 74 82 82 80 77 82 80 81 82 82 83 85 82 83 79 79 79 81 80 81 84 87 91 93 96 98 99

GFSMW_250_spd_144.txt.gz
Wind_Speed
16 16 16 11 10 7 5 20 23 30 25 26 37 31 27 31 43 44 48 48 47 46 43 43 44 40 37 33 35 32 31 30 36 35 27 27 27 30 28 31 31 32 31
15 16 14 10 7 3 9 26 31 37 34 44 37 32 30 37 41 47 44 43 43 42 38 36 34 34 30 32 32 30 29 28 32 28 29 27 25 24 23 26 33 32 33
11 16 14 11 9 14 25 33 43 42 41 43 34 32 35 35 37 36 37 32 31 34 33 29 28 27 26 26 26 26 27 30 25 27 29 33 33 29 30 30 31 30 31
10 14 13 13 20 32 39 43 42 42 52 44 33 31 36 35 36 39 33 29 27 25 26 27 26 25 21 20 24 22 24 21 24 28 31 25 23 25 24 28 27 28 28
7 10 12 15 22 33 39 41 43 50 43 42 36 26 32 29 32 26 19 17 9 9 13 16 22 19 14 16 17 19 20 23 25 31 25 25 27 25 25 25 23 28 28
3 4 10 15 25 33 38 37 41 44 38 32 30 30 35 28 25 17 19 13 18 12 12 8 4 5 12 17 18 22 24 25 26 26 23 24 26 25 24 24 24 25 26
5 2 8 11 17 28 35 37 38 33 32 33 30 28 19 24 21 20 19 15 13 12 8 7 4 10 16 18 21 25 27 24 23 23 21 18 19 19 19 19 22 21 21
9 5 6 11 18 32 35 35 34 31 30 30 26 21 17 15 16 19 11 7 13 12 9 8 8 12 20 23 25 28 27 22 22 20 19 15 14 14 16 18 17 16 16
15 11 11 14 20 26 33 34 34 33 29 27 23 19 17 15 11 12 14 12 9 11 13 14 17 21 19 26 28 26 25 23 20 17 16 13 11 9 14 15 17 19 17
21 18 16 20 25 26 30 31 30 28 24 23 24 22 17 13 10 18 15 11 11 15 19 24 22 22 24 28 25 23 23 20 18 17 15 15 14 13 13 11 11 9 8
29 24 23 25 25 26 30 32 30 30 30 25 23 23 19 17 17 20 16 14 18 18 27 29 27 26 25 22 19 18 18 17 16 13 11 10 9 11 4 0 2 2 7
37 30 28 28 31 30 31 27 23 26 30 28 23 24 19 19 22 23 19 19 18 22 26 23 22 23 23 21 20 18 15 12 10 8 7 8 7 4 5 5 6 7 8
43 39 36 34 32 37 37 32 28 26 31 28 27 24 20 18 19 21 24 25 23 23 24 24 21 18 19 18 16 14 11 9 9 7 7 7 5 6 6 7 9 10 11
47 44 43 43 40 36 37 36 33 29 32 31 28 26 22 22 22 22 22 21 20 23 25 24 23 20 17 16 13 14 12 11 12 12 10 11 11 12 12 13 14 15 18
50 51 46 47 45 42 39 38 37 35 32 30 28 26 22 21 22 23 25 25 22 21 20 19 19 22 21 21 18 16 15 16 17 16 16 17 18 19 21 20 22 23 21
57 56 51 49 49 46 43 43 42 41 38 36 33 30 28 26 23 25 26 25 23 19 19 21 23 21 29 27 25 24 23 24 23 22 22 25 27 27 27 29 31 31 29
68 64 60 54 53 53 49 49 44 43 43 39 33 31 29 28 28 27 29 28 26 24 20 19 20 21 24 33 33 31 32 31 32 31 31 30 32 33 36 37 37 36 36
79 74 69 64 60 57 55 55 51 47 44 42 39 36 34 31 30 29 30 28 27 29 27 27 29 30 30 31 33 37 35 32 34 35 36 36 37 38 37 40 40 40 40
79 84 78 71 67 61 60 60 58 53 50 46 42 41 41 38 32 28 27 20 24 25 31 33 31 37 39 38 38 39 39 40 41 40 40 41 41 42 44 44 43 45 45
75 80 87 83 75 68 66 66 66 61 55 50 50 47 45 45 40 39 40 38 37 40 35 30 38 42 39 38 41 42 42 44 45 46 47 47 45 43 42 47 50 50 51
79 79 88 89 82 75 72 73 72 68 62 60 57 55 51 48 48 46 40 36 41 38 41 40 38 42 49 51 50 53 50 47 47 47 48 50 49 50 50 52 53 54 55
78 83 86 93 89 83 79 78 79 75 70 67 66 62 58 53 54 53 50 40 42 40 36 41 46 50 51 55 56 56 55 55 55 53 51 53 55 55 55 58 60 61 63
75 80 87 94 95 91 86 82 83 81 77 72 71 66 67 68 61 61 53 51 46 45 48 50 62 55 56 55 53 58 59 57 59 61 60 61 64 65 69 70 67 66 67
73 79 84 92 99 98 93 90 87 87 85 82 79 78 76 74 73 69 61 55 50 46 55 48 61 55 55 56 58 62 63 66 67 67 69 70 74 74 72 74 74 76 72
61 73 78 85 96 101 100 97 94 92 90 90 87 85 83 78 74 74 70 64 60 55 53 62 69 68 68 70 73 73 72 72 74 79 78 78 77 75 76 76 80 80 83
61 74 76 85 90 97 99 100 101 99 97 95 93 91 88 84 82 79 77 70 75 71 70 66 72 72 70 72 78 81 84 85 85 81 80 84 82 85 87 87 87 88 92

GFSMW_250_spd_147.txt.gz
Wind_Speed
21 20 14 10 6 7 21 31 26 21 17 26 23 21 20 32 39 42 44 44 46 50 51 40 38 35 35 36 37 32 32 30 27 27 29 27 30 30 33 36 36 38 43
23 21 17 14 6 6 24 33 32 27 27 27 26 21 33 45 47 46 47 46 46 46 40 37 35 35 33 32 33 32 30 24 26 23 22 24 30 31 32 33 35 38 39
21 19 17 15 10 9 31 39 40 33 38 32 31 33 44 43 44 44 43 43 40 35 32 32 31 29 27 26 26 27 25 27 27 30 31 30 29 30 32 32 32 35 37
19 14 13 12 6 19 37 46 43 43 38 34 36 41 43 43 40 36 34 35 34 31 30 29 25 24 23 22 24 24 23 25 24 24 26 24 25 27 29 27 30 33 36
15 12 9 5 6 24 41 47 46 44 39 38 41 43 38 35 32 28 29 27 28 28 29 25 18 17 22 23 21 20 22 27 20 23 24 24 23 26 27 28 29 30 31
10 9 5 5 20 36 49 53 46 39 39 40 41 39 37 29 22 19 14 14 24 23 23 24 11 15 20 20 19 22 23 25 25 27 28 23 24 23 25 27 26 28 30
7 4 8 12 29 39 45 50 42 41 38 38 39 38 35 31 15 13 14 11 16 18 13 9 9 19 19 21 25 25 26 23 22 25 25 23 23 23 21 21 22 24 23
11 2 7 14 23 41 46 40 37 37 36 37 41 34 26 22 16 16 11 10 11 10 10 9 16 21 22 25 30 27 25 20 19 21 19 20 19 19 17 14 15 16 15
14 8 5 12 21 41 43 41 36 33 38 37 33 33 24 21 22 18 9 8 13 10 10 12 18 23 26 28 29 27 23 22 19 16 14 17 16 16 16 13 12 13 14
19 17 12 13 25 35 45 39 36 34 36 33 32 25 25 22 16 16 18 12 8 9 12 14 25 25 25 30 29 27 24 22 20 17 14 11 15 14 12 12 10 7 6
26 22 18 18 22 33 38 37 35 36 34 30 26 24 22 16 12 21 20 21 17 15 16 21 23 26 29 29 28 27 27 20 19 17 14 11 11 8 4 2 1 4 4
32 32 26 24 27 26 35 40 37 36 32 31 28 26 22 18 14 23 19 19 18 17 23 23 26 30 27 26 25 24 21 19 16 15 16 14 11 10 9 6 7 6 5
36 38 34 33 34 32 32 35 36 35 34 31 31 29 26 22 19 20 20 20 20 22 26 24 21 22 21 23 22 20 18 17 16 16 14 14 13 11 9 7 8 10 10
43 43 42 38 40 37 35 37 36 34 34 35 32 31 30 26 25 23 22 22 22 26 25 27 25 24 22 22 20 18 15 16 16 15 14 13 12 10 10 12 13 15 16
50 46 46 44 40 42 41 42 39 36 33 37 36 32 34 32 31 29 30 28 27 27 26 23 25 24 23 23 22 21 20 20 19 17 16 17 17 16 15 16 17 19 21
58 52 50 52 49 46 46 46 46 42 37 36 38 36 36 34 30 29 33 33 33 31 32 31 28 28 29 29 27 26 24 24 23 22 21 21 22 22 24 25 24 25 28
67 63 57 57 56 54 51 48 46 46 42 40 39 38 37 34 32 31 34 36 34 32 31 27 29 28 27 25 32 32 32 30 29 28 28 30 32 33 33 33 33 34 36
62 69 67 63 60 56 56 54 50 47 46 46 44 42 40 37 34 34 33 33 33 33 31 28 27 24 23 25 27 30 38 37 35 34 33 32 33 36 38 38 40 41 42
64 69 71 68 66 62 55 57 55 51 51 50 50 47 44 42 39 37 35 35 35 33 32 31 31 25 27 29 39 39 35 34 36 37 39 40 41 42 42 42 43 44 45
69 69 75 74 71 67 65 60 59 57 55 57 54 54 51 48 46 45 42 40 38 33 29 28 30 32 31 29 33 36 34 37 38 41 43 43 47 44 46 48 46 47 47
71 73 73 81 80 75 70 67 64 62 63 61 60 61 58 55 53 50 48 44 42 36 40 44 42 40 38 39 44 45 45 47 52 52 50 50 49 52 52 52 51 49 49
58 74 78 79 86 84 82 78 73 69 68 67 68 64 63 61 58 56 54 50 49 46 46 50 50 44 42 46 45 51 53 53 54 54 53 53 54 54 55 56 57 57 58
46 54 74 81 82 87 90 88 84 79 74 72 72 72 69 66 61 62 62 61 54 58 54 50 53 49 47 45 47 53 54 56 54 51 56 59 61 61 61 61 61 64 66
40 46 57 71 84 85 85 88 89 88 86 81 78 77 78 75 72 68 69 65 60 57 60 58 56 51 49 54 47 48 44 51 55 55 56 60 62 64 64 67 70 72 73
43 43 47 60 72 85 87 87 87 88 89 91 85 84 84 83 79 78 77 74 69 64 63 64 62 61 60 61 60 54 59 61 60 58 62 68 70 72 76 75 79 79 82
45 48 47 49 60 74 83 87 90 88 91 94 92 89 87 87 87 85 84 81 79 75 74 74 72 67 63 58 57 61 61 64 70 74 78 81 80 82 83 84 85 88 92